EHI
0 0 0 0 0 0 0 0 0 0 0 0 0 0 0 0 0 0 0 0 0 0 0 0 0 0 0 0 0 0 0 0 0 0 0 0 0 0
0 0 0 0 0 0 0 0 0 0 0 0 0 0 0 0 0 0 0 0 0 0 0 0 0 0 0 0 0 0 0 0 0 0 0 0 0 0
0 0 0 0 0 0 0 0 0 0 0 0 0 0 0 0 0 0 0 0 0 0 0 0 0 0 0 0 0 0 0 0 0 0 0 0 0 0
0 0 0 0 0 0 0 0 0 0 0 0 0 0 0 0 0 0 0 0 0 0 0 0 0 0 0 0 0 0 0 0 0 0 0 0 0 0
0 0 0 0 0 0 0 0 0 0 0 0 0 0 0 0 0 0 0 0 0 0 0 0 0 0 0 0 0 0 0 0 0 0 0 0 0 0
0 0 0 0 0 0 0 0 0 0 0 0 0 0 0 0 0 0 0 0 0 0 0 0 0 0 0 0 0 0 0 0 0 0 0 0 0 0
0 0 0 0 0 0 0 0 0 0 0 0 0 0 0 0 0 0 0 0 0 0 0 0 0 0 0 0 0 0 0 0 0 0 0 0 0 0
0 0 0 0 0 0 0 0 0 0 0 0 0 0 0 0 0 0 0 0 0 0 0 0 0 0 0 0 0 0 0 0 0 0 0 0 0 0
0 0 0 0 0 0 0 0 0 0 0 0 0 0 0 0 0 0 0 0 0 0 0 0 0 0 0 0 0 0 0 0 0 0 0 0 0 0
0 0 0 0 0 0 0 0 0 0 0 0 0 0 0 0 0 0 0 0 0 0 0 0 0 0 0 0 0 0 0 0 0 0 0 0 0 0
0 0 0 0 0 0 0 0 0 0 0 0 0 0 0 0 0 0 0 0 0 0 0 0 0 0 0 0 0 0 0 0 0 0 0 0 0 0
0 0 0 0 0 0 0 0 0 0 0 0 0 0 0 0 0 0 0 0 0 0 0 0 0 0 0 0 0 0 0 0 0 0 0 0 0 0
0 0 0 0 0 0 0 0 0 0 0 0 0 0 0 0 0 0 0 0 0 0 0 0 0 0 0 0 0 0 0 0 0 0 0 0 0 0
0 0 0 0 0 0 0 0 0 0 0 0 0 0 0 0 0 0 0 0 0 0 0 0 0 0 0 0 0 0 0 0 0 0 0 0 0 0
0 0 0 0 0 0 0 0 0 0 0 0 0 0 0 0 0 0 0 0 0 0 0 0 0 0 0 0 0 0 0 0 0 0 0 0 0 0
0 0 0 0 0 0 0 0 0 0 0 0 0 0 0 0 0 0 0 0 0 0 0 0 0 0 0 0 0 0 0 0 0 0 0 0 0 0
0 0 0 0 0 0 0 0 0 0 0 0 0 0 0 0 0 0 0 0 0 0 0 0 0 0 0 0 0 0 0 0 0 0 0 0 0 0
0 0 0 0 0 0 0 0 0 0 0 0 0 0 0 0 0 0 0 0 0 0 0 0 0 0 0 0 0 0 0 0 0 0 0 0 0 0
0 0 0 0 0 0 0 0 0 0 0 0 0 0 0 0 0 0 0 0 0 0 0 0 0 0 0 0 0 0 0 0 0 0 0 0 0 0
0 0 0 0 0 0 0 0 0 0 0 0 0 0 0 0 0 0 0 0 0 0 0 0 0 0 0 0 0 0 0 0 0 0 0 0 0 0
0 0 0 0 0 0 0 0 0 0 0 0 0 0 0 0 0 0 0 0 0 0 0 0 0 0 0 0 0 0 0 0 0 0 0 0 0 0
0 0 0 0 0 0 0 0 0 0 0 0 0 0 0 0 0 0 0 0 0 0 0 0 0 0 0 0 0 0 0 0 0 0 0 0 0 0
0 0 0 0 0 0 0 0 0 0 0 0 0 0 0 0 0 0 0 0 0 0 0 0 0 0 0 0 0 0 0 0 0 0 0 0 0 0
Wind_Speed
4 4 3 3 2 2 1 2 2 2 2 2 0 0 2 3 7 5 5 9 9 8 7 6 6 6 6 7 7 7 7 8 9 9 10 10 11 13
4 4 4 3 3 2 2 2 2 3 3 2 1 1 3 4 6 5 6 10 8 8 6 6 5 5 5 6 6 6 6 6 7 7 8 8 9 9
6 6 6 4 3 3 2 2 2 2 3 2 0 1 3 6 5 5 6 5 5 8 7 6 6 5 5 5 5 5 5 5 5 5 6 6 6 7
8 7 7 5 5 4 3 3 3 3 3 3 1 2 3 7 7 7 6 5 4 7 8 8 7 7 6 6 5 5 4 4 4 4 4 4 4 5
9 9 8 7 6 5 4 4 4 3 3 3 3 2 2 5 6 6 6 5 5 6 8 8 8 8 7 6 6 5 4 4 4 3 3 2 2 2
9 9 10 9 9 7 6 6 5 4 3 3 3 3 3 4 6 7 5 4 4 4 5 6 8 8 7 7 6 6 5 4 4 4 4 3 2 2
8 9 10 12 13 10 7 6 6 4 3 4 4 4 4 6 6 5 6 6 3 3 4 3 4 3 3 5 5 6 6 6 5 5 5 5 4 4
7 7 9 12 14 16 14 12 11 8 6 5 4 5 6 5 5 7 7 7 5 4 4 3 3 3 2 2 4 6 6 6 6 7 7 7 7 6
7 7 8 9 11 9 11 13 13 13 12 8 6 6 6 7 7 9 8 7 5 7 5 4 3 2 2 2 5 5 6 6 7 8 8 8 8 8
8 8 8 7 8 9 8 8 7 8 10 8 7 6 6 6 8 8 8 6 5 5 5 4 3 2 2 2 4 5 6 7 8 9 9 9 10 10
9 9 9 9 11 12 9 7 6 6 8 11 10 8 8 9 8 6 8 9 6 5 3 5 5 3 2 1 2 5 6 7 8 9 9 10 10 9
7 8 11 11 11 13 9 8 8 6 6 6 6 6 6 7 9 8 9 9 7 6 5 5 6 5 4 2 2 2 3 4 7 7 8 8 8 6
5 5 6 11 12 14 11 8 10 8 6 6 5 4 4 4 5 5 5 7 7 4 8 7 6 5 4 4 3 2 2 2 2 2 4 7 7 6
5 5 6 10 11 12 10 10 11 8 4 4 4 4 4 5 5 6 6 6 4 4 10 9 6 8 7 5 4 4 3 2 2 2 2 4 5 5
5 7 8 10 9 8 11 12 9 5 4 4 4 5 5 5 5 5 5 5 3 4 8 6 7 8 6 6 6 5 4 4 3 3 3 3 3 3
4 4 6 7 6 6 7 7 6 6 6 5 5 4 3 4 4 4 5 5 5 3 5 7 9 11 6 5 6 7 5 7 6 4 4 3 2 3
3 2 2 3 4 4 4 4 5 5 5 4 4 3 3 3 4 4 4 5 5 6 6 5 5 5 6 7 7 7 6 4 5 5 4 3 2 3
3 3 3 4 4 5 5 5 5 5 5 5 4 4 4 4 4 4 5 6 6 6 6 7 7 5 3 2 4 8 7 5 5 5 4 4 3 3
3 3 3 4 4 4 4 5 5 6 6 5 5 5 5 4 4 5 5 6 6 6 6 7 9 8 7 6 4 6 8 6 7 5 4 4 4 4
3 4 4 4 4 5 5 5 5 5 5 5 5 5 5 5 5 5 6 7 6 6 6 7 9 8 8 7 6 5 9 9 7 7 5 2 2 2
4 4 4 4 4 5 5 5 5 5 5 5 6 6 6 5 5 5 6 8 7 7 9 9 7 8 6 6 6 4 4 8 10 8 7 5 3 2
4 5 5 5 5 5 5 5 5 5 6 6 6 6 6 6 6 7 6 7 7 7 7 6 8 7 6 7 7 6 5 4 5 9 11 9 7 7
5 5 4 5 5 5 5 6 7 6 6 6 6 6 7 6 6 6 7 7 7 7 8 8 7 6 5 6 7 6 7 6 4 4 2 1 7 9
Wind_Direction
227 228 224 217 210 215 211 193 181 210 237 248 247 99 124 132 149 142 137 148 150 155 160 168 177 186 191 194 198 202 205 209 213 216 220 224 229 232
223 225 229 221 212 207 204 207 192 191 222 232 209 168 144 136 133 129 129 132 133 139 144 151 159 165 173 179 187 194 199 204 210 215 219 224 229 234
228 221 227 218 209 205 200 199 207 194 213 242 241 139 133 143 133 123 122 120 123 131 133 135 140 147 154 160 165 172 182 189 198 206 213 221 228 233
231 223 226 220 210 203 197 205 209 209 199 211 205 176 162 158 149 142 135 126 121 127 125 123 123 123 125 129 133 138 147 161 174 184 194 205 216 225
228 222 222 213 213 205 198 201 206 214 207 195 200 194 166 156 148 141 130 120 125 125 117 113 114 112 111 112 117 126 132 139 146 151 156 170 195 218
231 224 220 212 211 204 202 200 195 199 201 197 194 188 179 166 157 152 145 137 134 128 112 109 109 103 103 105 111 120 126 129 130 129 127 124 119 119
236 229 223 218 214 205 200 194 190 191 194 199 196 184 182 175 175 162 154 141 122 132 125 120 109 96 90 95 102 111 116 119 119 117 114 110 104 97
237 235 234 228 221 214 209 197 189 188 193 197 198 194 189 184 172 163 155 156 158 157 136 128 116 108 88 80 103 111 114 116 116 113 107 103 99 92
229 230 239 232 215 211 212 207 203 201 193 186 193 202 189 184 177 176 172 166 154 157 138 130 125 116 94 92 112 117 120 120 119 115 110 104 99 92
227 225 226 230 216 201 200 200 202 204 202 194 194 201 197 186 186 182 171 146 110 146 142 130 133 119 103 82 110 120 124 124 121 119 115 108 100 91
232 228 221 220 218 201 190 193 201 213 212 205 201 202 199 190 178 166 163 163 155 163 156 129 133 119 106 101 102 118 123 127 126 125 121 114 106 95
230 228 222 215 213 201 191 188 198 207 197 197 205 212 203 195 186 185 180 175 158 156 163 138 138 138 137 132 125 122 118 129 136 135 132 124 116 102
221 219 220 217 215 207 195 192 199 190 183 182 182 184 179 185 190 194 192 183 169 159 162 146 143 143 138 142 152 161 156 147 144 142 140 138 134 125
215 213 215 216 215 207 200 205 199 183 167 170 171 178 182 190 195 196 199 198 187 165 163 154 147 157 145 144 160 162 169 172 162 160 152 145 139 126
214 210 210 213 208 204 204 201 192 178 167 172 184 189 192 192 182 182 190 186 167 166 164 162 150 152 148 149 153 155 160 183 182 168 161 158 159 149
217 214 210 203 185 185 187 190 184 181 177 180 188 190 175 168 176 172 175 170 165 166 171 166 159 157 150 145 151 158 161 169 175 175 159 159 165 167
184 169 154 152 163 167 168 171 174 174 181 175 175 179 175 178 182 172 167 166 174 172 167 159 158 153 149 148 152 160 156 156 162 158 152 158 188 187
177 172 176 174 178 180 177 176 179 186 186 180 177 180 181 187 186 177 171 175 176 174 171 158 149 133 107 83 158 159 160 157 153 154 145 151 189 209
181 192 192 190 190 187 184 181 186 190 183 180 184 185 181 182 180 181 181 180 175 173 170 164 165 161 164 167 184 174 161 155 151 156 165 157 179 197
202 201 203 199 195 195 194 193 192 184 181 186 187 186 181 176 177 182 184 182 174 168 170 173 178 177 176 164 156 172 172 158 157 163 162 129 101 102
213 211 206 202 202 201 200 196 191 188 187 186 191 191 185 178 180 184 186 180 170 169 180 184 178 151 119 116 121 130 163 176 164 160 152 134 125 126
219 218 216 209 205 204 202 196 193 193 192 190 189 189 186 182 182 180 182 179 178 175 173 160 147 147 147 157 155 149 148 149 161 159 160 162 158 172
223 216 213 209 204 196 192 192 193 196 194 189 185 184 184 184 182 176 178 178 174 167 157 154 157 158 156 153 147 143 147 147 138 132 152 206 192 195